Home > Weather > Indre Arna > Past weeks

Flag for Norway Past Weather in Indre Arna, Norway — Yesterday and Last 2 Weeks

Now
61 °F

Light rain. Broken clouds.


Feels Like: 61 °F
Forecast: 59 / 74 °F
Wind: No wind

Location: Bergen / Flesland

Current Time: May 30, 2016 at 6:41:39 PM

Latest Report: May 30, 2016 at 5:50 PM


Visibility: N/A

Pressure: 30.09 "Hg

Humidity: 83%

Dew Point: 55 °F

Location of Indre ArnaLocation

Past Weather in Indre Arna — Graph

°F

Indre Arna Temperature Yesterday

Maximum temperature yesterday: 68 °F (at 4:20 PM)
Minimum temperature yesterday: 46 °F (at 4:50 AM)
Average temperature yesterday: 59 °F

High & Low Weather Summary for the Past Weeks

 TemperatureHumidityPressure
High68 °F (May 29, 4:20 PM)100% (May 18, 10:20 PM)30.18 "Hg (May 18, 10:20 PM)
Low39 °F (May 16, 4:50 AM)35% (May 25, 7:50 PM)29.59 "Hg (May 20, 11:20 AM)
Average52 °F77%29.93 "Hg
* Reported May 15 5:20 PM — May 30 5:20 PM, Indre Arna, Weather by CustomWeather, © 2016

Note: Actual official high and low records may vary slightly from our data, if they occured in-between our weather recording intervals... More about our weather records

Advertising

Indre Arna Weather History for the Previous 24 Hours

Scroll right to see more
 ConditionsComfort  
Time TempWeatherWind HumidityBarometerVisibility
5:20 PM
Mon, May 30
61 °FScattered showers. Partly sunny.2 mph83%30.09 "HgN/A
4:50 PM61 °FScattered showers. Partly sunny.2 mph83%30.09 "HgN/A
4:20 PM61 °FScattered showers. Broken clouds.6 mph77%30.09 "HgN/A
3:50 PM61 °FLight rain. Broken clouds.6 mph83%30.09 "HgN/A
3:20 PM63 °FLight rain. Broken clouds.5 mph64%30.09 "HgN/A
2:50 PM63 °FLight rain. Broken clouds.2 mph64%30.09 "HgN/A
2:20 PM63 °FLight rain. Partly sunny.3 mph64%30.12 "HgN/A
1:50 PM64 °FSprinkles. Broken clouds.No wind60%30.12 "HgN/A
1:20 PM64 °FSprinkles. Partly sunny.1 mph60%30.12 "HgN/A
12:50 PM64 °FBroken clouds.2 mph60%30.12 "HgN/A
12:20 PM64 °FBroken clouds.2 mph60%30.12 "HgN/A
11:50 AM64 °FBroken clouds.2 mph56%30.09 "HgN/A
10:50 AM63 °FPartly sunny.5 mph59%30.09 "HgN/A
10:20 AM63 °FPartly sunny.3 mph59%30.09 "HgN/A
9:50 AM63 °FPartly sunny.3 mph59%30.09 "HgN/A
9:20 AM61 °FPartly sunny.1 mph68%30.09 "HgN/A
8:50 AM61 °FPartly sunny.No wind68%30.09 "HgN/A
8:20 AM59 °FPartly sunny.1 mph68%30.09 "HgN/A
7:50 AM55 °FPartly sunny.2 mph77%30.09 "HgN/A
7:20 AM55 °FScattered clouds.3 mph77%30.09 "HgN/A
6:50 AM54 °FScattered clouds.3 mph82%30.09 "HgN/A
6:20 AM52 °FSunny.No wind82%30.09 "Hg10 mi
5:50 AM52 °FSunny.No wind82%30.09 "Hg10 mi
5:20 AM50 °FClear.1 mph88%30.09 "Hg10 mi
4:50 AM52 °FClear.2 mph82%30.12 "Hg10 mi
2:50 AM55 °FClear.3 mph72%30.12 "Hg10 mi
1:50 AM57 °FClear.1 mph67%30.12 "Hg10 mi
1:20 AM57 °FClear.1 mph67%30.12 "Hg10 mi
12:50 AM57 °FClear.1 mph67%30.12 "Hg10 mi
12:20 AM57 °FClear.1 mph67%30.12 "Hg10 mi
11:50 PM
Sun, May 29
59 °FPassing clouds.5 mph63%30.12 "HgN/A
11:20 PM59 °FPassing clouds.5 mph68%30.09 "HgN/A
10:50 PM61 °FPassing clouds.3 mph63%30.09 "HgN/A
10:20 PM61 °FPassing clouds.3 mph59%30.09 "HgN/A
9:50 PM64 °FPassing clouds.1 mph52%30.09 "HgN/A
9:20 PM64 °FScattered clouds.3 mph49%30.09 "HgN/A
8:50 PM64 °FPartly sunny.5 mph52%30.09 "HgN/A
8:20 PM64 °FPartly sunny.5 mph52%30.09 "HgN/A
7:50 PM66 °FPartly sunny.6 mph49%30.09 "HgN/A
7:20 PM66 °FPartly sunny.7 mph52%30.09 "HgN/A
6:50 PM66 °FPartly sunny.9 mph49%30.09 "HgN/A
6:20 PM66 °FPartly sunny.9 mph49%30.09 "HgN/A
Weather by CustomWeather, © 2016

See weather overviewHow to use our weather pages